{"data":{"norad_id":66524,"intl_designator":"2025-265J","name":"STARLINK-35687","alt_names":[],"object_type":"PAYLOAD","status":"ACTIVE","operator":null,"country":"US","launch_date":"2025-11-19","launch_site_code":"AFETR","launch_vehicle":null,"mission":null,"orbit_class":"UNKNOWN","rcs_meters":null,"size_class":null,"mass_kg":null,"dimensions":null,"purposes":["comms"],"wikipedia_slug":null,"has_3d_model":false,"image_url":null,"decayed_at":null,"tle_current":{"epoch":"2026-05-25T05:19:41.377152Z","epoch_age_seconds":51915,"freshness":"FRESH","line1":"1 66524U 25265J   26145.22200668  .00012711  00000+0  47048-3 0  9994","line2":"2 66524  42.9996 206.1070 0001497 263.6774  96.3907 15.27589300 28819","mean_motion":15.275893,"eccentricity":0.0001497,"inclination_deg":42.9996,"raan_deg":206.107,"arg_perigee_deg":263.6774,"mean_anomaly_deg":96.3907,"bstar":0.00047048,"rev_number":2881,"period_min":94.266174815443,"perigee_km":481.99413324546,"apogee_km":484.0483640251,"semimajor_km":6861.1582486353,"source":"CELESTRAK","updated_at":"2026-05-25T13:38:21.250798Z"}}}